Change the Weather History Date:

Sunday, April 28, 2013

  Actual Average (KOLM) Record (KOLM)
Temperature  
Mean Temperature 54 °F 50 °F  
Max Temperature 60 °F 61 °F 79 °F (1968)
Min Temperature 48 °F 39 °F 26 °F (1973)
Degree Days  
Heating Degree Days 11 15  
Month to date heating degree days 472  
Since 1 July heating degree days 4830  
Cooling Degree Days 0 0  
Month to date cooling degree days 0  
Year to date cooling degree days 0  
Growing Degree Days 4 (Base 50)    
Moisture  
Dew Point 45 °F    
Average Humidity 76    
Maximum Humidity 94    
Minimum Humidity 45    
Precipitation  
Precipitation 0.05 in 0.09 in 0.91 in (1959)
Month to date precipitation 3.36  
Year to date precipitation 21.76  
Sea Level Pressure  
Sea Level Pressure 30.20 in    
Wind  
Wind Speed 4 mph (SW)    
Max Wind Speed 14 mph    
Max Gust Speed 20 mph    
Visibility 9 miles    
Events Rain    
T = Trace of Precipitation, MM = Missing Value Source: NWS Daily Summary

Daily Weather History Graph

Daily Weather History Graph

Search for Another Location

Airport or City:

Trip Planner

Search our weather history database for the weather conditions in past years. The results will help you decide how hot, cold, wet, or windy it might be!

Date:

Astronomy

Apr. 28, 2013 Rise Set
Actual Time 6:01 AM PDT 8:18 PM PDT
Civil Twilight 5:28 AM PDT 8:51 PM PDT
Nautical Twilight 4:46 AM PDT 9:33 PM PDT
Astronomical Twilight 4:00 AM PDT 10:20 PM PDT
Moon No Moon Rise 8:16 AM PDT (4/28)
Length of Visible Light 15h 23m
Length of Day
14h 16m
Waning Gibbous, 88% of the Moon is Illuminated
Apr 28
Waning Gibbous
May 2
Last Quarter
May 9
New
May 17
First Quarter
May 24
Full

Hourly Weather History & Observations

Time (PDT) Temp. Dew Point Humidity Pressure Visibility Wind Dir Wind Speed Gust Speed Precip Events Conditions
12:15 AM 51.8 °F 48.2 °F 88% 30.26 in 10.0 mi Calm Calm - N/A   Overcast
12:35 AM 51.8 °F 48.2 °F 88% 30.25 in 10.0 mi Calm Calm - N/A   Overcast
12:55 AM 50.0 °F 48.2 °F 94% 30.26 in 10.0 mi South 3.5 mph - N/A   Overcast
1:15 AM 50.0 °F 48.2 °F 94% 30.26 in 10.0 mi Calm Calm - N/A   Overcast
1:35 AM 50.0 °F 48.2 °F 94% 30.26 in 9.0 mi South 3.5 mph - N/A   Overcast
1:55 AM 50.0 °F 48.2 °F 94% 30.25 in 10.0 mi South 4.6 mph - N/A   Overcast
2:15 AM 50.0 °F 48.2 °F 94% 30.25 in 10.0 mi SSW 4.6 mph - N/A   Overcast
2:35 AM 50.0 °F 48.2 °F 94% 30.25 in 10.0 mi South 3.5 mph - N/A   Overcast
2:55 AM 50.0 °F 48.2 °F 94% 30.24 in 10.0 mi Calm Calm - N/A   Overcast
3:15 AM 50.0 °F 48.2 °F 94% 30.24 in 8.0 mi SSW 3.5 mph - N/A   Overcast
3:35 AM 50.0 °F 48.2 °F 94% 30.24 in 9.0 mi SSW 3.5 mph - N/A   Overcast
3:55 AM 50.0 °F 48.2 °F 94% 30.24 in 10.0 mi Calm Calm - N/A   Overcast
4:15 AM 50.0 °F 48.2 °F 94% 30.24 in 10.0 mi SSW 3.5 mph - N/A   Overcast
4:35 AM 50.0 °F 48.2 °F 94% 30.24 in 10.0 mi Calm Calm - N/A   Overcast
4:55 AM 50.0 °F 48.2 °F 94% 30.24 in 9.0 mi Calm Calm - N/A   Mostly Cloudy
5:15 AM 50.0 °F 48.2 °F 94% 30.24 in 10.0 mi SSW 3.5 mph - N/A   Overcast
5:35 AM 50.0 °F 48.2 °F 94% 30.24 in 10.0 mi Calm Calm - N/A   Overcast
6:15 AM 50.0 °F 48.2 °F 94% 30.23 in 10.0 mi SSW 3.5 mph - N/A   Overcast
6:35 AM 50.0 °F 48.2 °F 94% 30.23 in 10.0 mi SW 3.5 mph - N/A   Overcast
6:55 AM 50.0 °F 48.2 °F 94% 30.24 in 10.0 mi SW 3.5 mph - N/A   Overcast
7:15 AM 50.0 °F 48.2 °F 94% 30.24 in 4.0 mi SW 3.5 mph - N/A Rain Light Rain
7:35 AM 50.0 °F 48.2 °F 94% 30.25 in 6.0 mi SW 3.5 mph - N/A Rain Light Rain
7:55 AM 50.0 °F 48.2 °F 94% 30.25 in 10.0 mi WSW 3.5 mph - 0.01 in   Mostly Cloudy
8:15 AM 50.0 °F 48.2 °F 94% 30.26 in 9.0 mi SSW 4.6 mph - N/A Rain Light Rain
8:35 AM 50.0 °F 48.2 °F 94% 30.25 in 10.0 mi Calm Calm - N/A   Mostly Cloudy
8:55 AM 53.6 °F 48.2 °F 82% 30.25 in 7.0 mi SW 4.6 mph - N/A   Mostly Cloudy
9:15 AM 53.6 °F 46.4 °F 77% 30.26 in 10.0 mi West 5.8 mph - N/A   Overcast
9:35 AM 53.6 °F 46.4 °F 77% 30.26 in 10.0 mi North 3.5 mph - N/A   Mostly Cloudy
9:55 AM 53.6 °F 46.4 °F 77% 30.26 in 10.0 mi Calm Calm - N/A   Mostly Cloudy
10:15 AM 55.4 °F 44.6 °F 67% 30.26 in 10.0 mi SW 8.1 mph - N/A   Overcast
10:35 AM 55.4 °F 46.4 °F 72% 30.26 in 8.0 mi West 8.1 mph - N/A   Overcast
10:55 AM 53.6 °F 46.4 °F 77% 30.26 in 9.0 mi WNW 6.9 mph - N/A   Mostly Cloudy
11:15 AM 55.4 °F 44.6 °F 67% 30.26 in 8.0 mi WSW 6.9 mph - N/A   Mostly Cloudy
11:55 AM 57.2 °F 42.8 °F 59% 30.25 in 8.0 mi SW 8.1 mph - N/A   Mostly Cloudy
12:15 PM 57.2 °F 42.8 °F 59% 30.25 in 10.0 mi WSW 13.8 mph 19.6 mph N/A   Scattered Clouds
12:35 PM 59.0 °F 42.8 °F 55% 30.24 in 9.0 mi SW 12.7 mph 19.6 mph N/A   Partly Cloudy
12:55 PM 57.2 °F 39.2 °F 51% 30.25 in 8.0 mi WSW 8.1 mph 16.1 mph N/A   Mostly Cloudy
1:15 PM 57.2 °F 41.0 °F 55% 30.25 in 7.0 mi WNW 10.4 mph 17.3 mph N/A   Mostly Cloudy
1:35 PM 57.2 °F 41.0 °F 55% 30.25 in 5.0 mi West 8.1 mph 17.3 mph N/A   Haze
1:55 PM 59.0 °F 39.2 °F 48% 30.25 in 10.0 mi West 9.2 mph 16.1 mph N/A   Scattered Clouds
2:15 PM 59.0 °F 39.2 °F 48% 30.24 in 10.0 mi WNW 8.1 mph 19.6 mph N/A   Scattered Clouds
2:35 PM 60.8 °F 41.0 °F 48% 30.24 in 10.0 mi WSW 6.9 mph - N/A   Scattered Clouds
2:55 PM 59.0 °F 41.0 °F 51% 30.24 in 7.0 mi WNW 5.8 mph 17.3 mph N/A   Scattered Clouds
3:15 PM 60.8 °F 39.2 °F 45% 30.23 in 6.0 mi West 6.9 mph - N/A   Haze
3:35 PM 59.0 °F 41.0 °F 51% 30.22 in 10.0 mi West 8.1 mph - N/A   Scattered Clouds
3:55 PM 60.8 °F 41.0 °F 48% 30.21 in 10.0 mi West 6.9 mph - N/A   Partly Cloudy
4:15 PM 60.8 °F 41.0 °F 48% 30.20 in 10.0 mi WNW 9.2 mph 16.1 mph N/A   Partly Cloudy
4:35 PM 59.0 °F 41.0 °F 51% 30.20 in 10.0 mi West 5.8 mph - N/A   Mostly Cloudy
4:55 PM 59.0 °F 41.0 °F 51% 30.20 in 10.0 mi WSW 5.8 mph - N/A   Mostly Cloudy
5:35 PM 57.2 °F 41.0 °F 55% 30.18 in 10.0 mi West 8.1 mph - N/A   Overcast
5:55 PM 57.2 °F 41.0 °F 55% 30.18 in 7.0 mi West 4.6 mph - N/A   Mostly Cloudy
6:15 PM 57.2 °F 41.0 °F 55% 30.17 in 10.0 mi SW 4.6 mph - N/A   Mostly Cloudy
6:35 PM 55.4 °F 41.0 °F 58% 30.16 in 10.0 mi SW 6.9 mph - N/A   Overcast
6:55 PM 53.6 °F 41.0 °F 62% 30.15 in 10.0 mi SW 6.9 mph - N/A   Overcast
7:15 PM 53.6 °F 41.0 °F 62% 30.14 in 8.0 mi SSW 6.9 mph - N/A   Overcast
7:35 PM 53.6 °F 41.0 °F 62% 30.14 in 10.0 mi SW 5.8 mph - N/A   Overcast
7:55 PM 51.8 °F 42.8 °F 71% 30.13 in 10.0 mi SW 4.6 mph - N/A Rain Light Rain
8:15 PM 51.8 °F 42.8 °F 71% 30.12 in 8.0 mi SW 4.6 mph - N/A   Overcast
8:35 PM 50.0 °F 44.6 °F 82% 30.11 in 10.0 mi Calm Calm - N/A Rain Light Rain
8:55 PM 50.0 °F 44.6 °F 82% 30.11 in 10.0 mi SSW 3.5 mph - N/A   Overcast
9:15 PM 50.0 °F 44.6 °F 82% 30.10 in 7.0 mi SSW 5.8 mph - 0.01 in Rain Light Rain
9:35 PM 50.0 °F 44.6 °F 82% 30.08 in 7.0 mi SSW 5.8 mph - 0.01 in   Overcast
9:55 PM 50.0 °F 46.4 °F 87% 30.07 in 6.0 mi South 6.9 mph - 0.01 in   Overcast
10:15 PM 50.0 °F 46.4 °F 87% 30.06 in 7.0 mi SSW 8.1 mph - N/A   Overcast
10:35 PM 50.0 °F 46.4 °F 87% 30.05 in 5.0 mi SSW 5.8 mph - N/A Rain Light Rain
10:55 PM 48.2 °F 46.4 °F 93% 30.05 in 5.0 mi SSW 4.6 mph - N/A Rain Light Rain
11:15 PM 48.2 °F 46.4 °F 93% 30.04 in 9.0 mi SSW 6.9 mph - 0.01 in Rain Light Rain
11:35 PM 48.2 °F 46.4 °F 93% 30.03 in 5.0 mi SSW 6.9 mph - 0.02 in Rain Light Rain
11:55 PM 48.2 °F 46.4 °F 93% 30.03 in 7.0 mi SSW 8.1 mph - 0.03 in Rain Light Rain